|
NORAD ID: 9975 Int'l Code: 1973-086GE
Perigee: 1,433.7 km
Apogee: 1,586.2 km
Inclination: 102.5 °
Period: 116.0 minutes
Semi major axis: 7880 km
Launch date: November 6, 1973
Source: United States (US)
Note: This is SATELLITE DEBRIS
Two Line Element Set (TLE):
1 09975U 73086GE 13168.29577309 .00000373 00000-0 30662-2 0 4408
2 09975 102.4692 287.5349 0096756 244.1273 186.3375 12.40893542503885
Source:
NASA's NSSDC Master Catalog entry for DELTA 1 DEB
|